Year,Month,Day,Hour,Minute,Value (Times are PST for windgust in km/hr)
2017,10,04,00,00,3.20
2017,10,04,00,01,3.20
2017,10,04,00,02,4.80
2017,10,04,00,03,4.80
2017,10,04,00,04,4.80
2017,10,04,00,05,3.20
2017,10,04,00,06,3.20
2017,10,04,00,07,1.60
2017,10,04,00,12,3.20
2017,10,04,00,13,3.20
2017,10,04,00,14,1.60
2017,10,04,00,15,3.20
2017,10,04,00,16,3.20
2017,10,04,00,17,1.60
2017,10,04,00,18,3.20
2017,10,04,00,19,3.20
2017,10,04,00,20,3.20
2017,10,04,00,21,1.60
2017,10,04,00,22,3.20
2017,10,04,00,23,1.60
2017,10,04,00,24,3.20
2017,10,04,00,25,1.60
2017,10,04,00,26,3.20
2017,10,04,00,27,1.60
2017,10,04,00,28,3.20
2017,10,04,00,29,3.20
2017,10,04,00,30,1.60
2017,10,04,00,31,1.60
2017,10,04,00,32,3.20
2017,10,04,00,33,3.20
2017,10,04,00,35,1.60
2017,10,04,00,36,1.60
2017,10,04,00,37,3.20
2017,10,04,00,38,1.60
2017,10,04,00,39,1.60
2017,10,04,00,40,1.60
2017,10,04,00,41,1.60
2017,10,04,00,42,1.60
2017,10,04,00,43,3.20
2017,10,04,00,44,1.60
2017,10,04,00,45,1.60
2017,10,04,00,46,3.20
2017,10,04,00,47,3.20
2017,10,04,00,48,3.20
2017,10,04,00,49,3.20
2017,10,04,00,50,3.20
2017,10,04,00,51,3.20
2017,10,04,00,52,3.20
2017,10,04,00,53,3.20
2017,10,04,00,54,3.20
2017,10,04,00,55,4.80
2017,10,04,00,56,3.20
2017,10,04,00,57,3.20
2017,10,04,00,58,3.20
2017,10,04,00,59,3.20
2017,10,04,01,00,3.20
2017,10,04,01,01,3.20
2017,10,04,01,02,3.20
2017,10,04,01,03,3.20
2017,10,04,01,04,4.80
2017,10,04,01,05,3.20
2017,10,04,01,06,3.20
2017,10,04,01,07,3.20
2017,10,04,01,08,3.20
2017,10,04,01,09,3.20
2017,10,04,01,10,4.80
2017,10,04,01,11,3.20
2017,10,04,01,12,3.20
2017,10,04,01,13,4.80
2017,10,04,01,14,3.20
2017,10,04,01,15,3.20
2017,10,04,01,16,3.20
2017,10,04,01,17,1.60
2017,10,04,01,18,1.60
2017,10,04,01,19,3.20
2017,10,04,01,20,3.20
2017,10,04,01,21,1.60
2017,10,04,01,22,1.60
2017,10,04,01,23,1.60
2017,10,04,01,24,1.60
2017,10,04,01,25,1.60
2017,10,04,01,26,1.60
2017,10,04,02,01,1.60
2017,10,04,02,02,1.60
2017,10,04,02,03,1.60
2017,10,04,02,07,1.60
2017,10,04,02,21,3.20
2017,10,04,02,22,3.20
2017,10,04,02,23,3.20
2017,10,04,02,24,4.80
2017,10,04,02,25,3.20
2017,10,04,02,26,4.80
2017,10,04,02,27,3.20
2017,10,04,02,28,1.60
2017,10,04,02,29,1.60
2017,10,04,02,30,3.20
2017,10,04,02,31,1.60
2017,10,04,02,32,1.60
2017,10,04,02,33,1.60
2017,10,04,02,34,3.20
2017,10,04,02,35,1.60
2017,10,04,02,42,1.60
2017,10,04,02,43,1.60
2017,10,04,02,44,1.60
2017,10,04,02,45,1.60
2017,10,04,02,46,1.60
2017,10,04,02,47,1.60
2017,10,04,02,48,1.60
2017,10,04,02,49,1.60
2017,10,04,02,52,1.60
2017,10,04,02,53,1.60
2017,10,04,02,54,1.60
2017,10,04,02,55,3.20
2017,10,04,02,56,3.20
2017,10,04,02,57,4.80
2017,10,04,02,58,3.20
2017,10,04,02,59,1.60
2017,10,04,03,00,1.60
2017,10,04,03,01,3.20
2017,10,04,03,02,3.20
2017,10,04,03,03,4.80
2017,10,04,03,04,4.80
2017,10,04,03,05,4.80
2017,10,04,03,06,4.80
2017,10,04,03,07,4.80
2017,10,04,03,08,4.80
2017,10,04,03,09,4.80
2017,10,04,03,10,3.20
2017,10,04,03,11,4.80
2017,10,04,03,12,3.20
2017,10,04,03,13,1.60
2017,10,04,03,14,1.60
2017,10,04,03,15,1.60
2017,10,04,03,17,1.60
2017,10,04,03,19,1.60
2017,10,04,03,20,1.60
2017,10,04,03,21,3.20
2017,10,04,03,22,3.20
2017,10,04,03,23,3.20
2017,10,04,03,24,3.20
2017,10,04,03,25,3.20
2017,10,04,03,26,3.20
2017,10,04,03,27,3.20
2017,10,04,03,28,3.20
2017,10,04,03,29,3.20
2017,10,04,03,30,3.20
2017,10,04,03,31,3.20
2017,10,04,03,32,3.20
2017,10,04,03,33,3.20
2017,10,04,03,34,3.20
2017,10,04,03,35,3.20
2017,10,04,03,36,3.20
2017,10,04,03,37,3.20
2017,10,04,03,38,3.20
2017,10,04,03,39,4.80
2017,10,04,03,40,3.20
2017,10,04,03,41,4.80
2017,10,04,03,42,4.80
2017,10,04,03,43,3.20
2017,10,04,03,44,3.20
2017,10,04,03,45,4.80
2017,10,04,03,46,4.80
2017,10,04,03,47,4.80
2017,10,04,03,48,4.80
2017,10,04,03,49,4.80
2017,10,04,03,50,3.20
2017,10,04,03,51,3.20
2017,10,04,03,52,3.20
2017,10,04,03,54,1.60
2017,10,04,04,22,1.60
2017,10,04,04,23,3.20
2017,10,04,04,24,3.20
2017,10,04,04,25,4.80
2017,10,04,04,26,3.20
2017,10,04,04,27,4.80
2017,10,04,04,28,3.20
2017,10,04,04,29,3.20
2017,10,04,04,30,1.60
2017,10,04,04,39,1.60
2017,10,04,04,40,1.60
2017,10,04,04,41,3.20
2017,10,04,04,42,1.60
2017,10,04,04,44,1.60
2017,10,04,04,45,1.60
2017,10,04,04,46,1.60
2017,10,04,05,59,1.60
2017,10,04,06,00,1.60
2017,10,04,06,01,1.60
2017,10,04,06,02,1.60
2017,10,04,06,03,3.20
2017,10,04,06,04,3.20
2017,10,04,06,05,3.20
2017,10,04,06,06,3.20
2017,10,04,06,07,4.80
2017,10,04,06,08,3.20
2017,10,04,06,09,4.80
2017,10,04,06,10,4.80
2017,10,04,06,11,4.80
2017,10,04,06,12,4.80
2017,10,04,06,13,4.80
2017,10,04,06,14,4.80
2017,10,04,06,15,4.80
2017,10,04,06,16,4.80
2017,10,04,06,17,4.80
2017,10,04,06,18,4.80
2017,10,04,06,19,4.80
2017,10,04,06,20,4.80
2017,10,04,06,21,3.20
2017,10,04,06,22,3.20
2017,10,04,06,23,4.80
2017,10,04,06,24,3.20
2017,10,04,06,25,3.20
2017,10,04,06,26,3.20
2017,10,04,06,27,1.60
2017,10,04,06,28,1.60
2017,10,04,06,29,3.20
2017,10,04,06,30,3.20
2017,10,04,06,31,3.20
2017,10,04,06,32,3.20
2017,10,04,06,33,3.20
2017,10,04,06,49,3.20
2017,10,04,06,50,1.60
2017,10,04,06,51,3.20
2017,10,04,06,52,3.20
2017,10,04,06,53,1.60
2017,10,04,06,54,1.60
2017,10,04,06,55,1.60
2017,10,04,06,57,1.60
2017,10,04,06,58,3.20
2017,10,04,06,59,1.60
2017,10,04,07,00,1.60
2017,10,04,07,14,1.60
2017,10,04,07,15,3.20
2017,10,04,07,16,1.60
2017,10,04,07,17,1.60
2017,10,04,07,18,1.60
2017,10,04,07,24,1.60
2017,10,04,07,28,1.60
2017,10,04,07,29,3.20
2017,10,04,07,30,3.20
2017,10,04,07,31,3.20
2017,10,04,07,32,3.20
2017,10,04,07,33,1.60
2017,10,04,07,34,1.60
2017,10,04,07,35,1.60
2017,10,04,07,36,1.60
2017,10,04,07,37,1.60
2017,10,04,07,38,3.20
2017,10,04,07,39,1.60
2017,10,04,07,40,1.60
2017,10,04,07,41,1.60
2017,10,04,07,43,1.60
2017,10,04,07,44,1.60
2017,10,04,07,50,1.60
2017,10,04,07,52,1.60
2017,10,04,07,53,1.60
2017,10,04,07,54,1.60
2017,10,04,07,56,1.60
2017,10,04,08,00,1.60
2017,10,04,08,03,1.60
2017,10,04,08,04,1.60
2017,10,04,08,06,3.20
2017,10,04,08,07,3.20
2017,10,04,08,08,1.60
2017,10,04,08,09,3.20
2017,10,04,08,10,1.60
2017,10,04,08,11,3.20
2017,10,04,08,12,3.20
2017,10,04,08,13,3.20
2017,10,04,08,14,4.80
2017,10,04,08,15,4.80
2017,10,04,08,16,3.20
2017,10,04,08,17,4.80
2017,10,04,08,18,4.80
2017,10,04,08,19,3.20
2017,10,04,08,20,4.80
2017,10,04,08,21,4.80
2017,10,04,08,22,3.20
2017,10,04,08,23,3.20
2017,10,04,08,24,3.20
2017,10,04,08,25,3.20
2017,10,04,08,26,3.20
2017,10,04,08,27,3.20
2017,10,04,08,28,4.80
2017,10,04,08,29,3.20
2017,10,04,08,30,4.80
2017,10,04,08,31,3.20
2017,10,04,08,32,3.20
2017,10,04,08,33,3.20
2017,10,04,08,34,3.20
2017,10,04,08,35,3.20
2017,10,04,08,36,1.60
2017,10,04,08,37,3.20
2017,10,04,08,38,1.60
2017,10,04,08,39,1.60
2017,10,04,08,40,1.60
2017,10,04,08,41,1.60
2017,10,04,08,47,1.60
2017,10,04,08,48,1.60
2017,10,04,09,12,1.60
2017,10,04,09,13,4.80
2017,10,04,09,14,4.80
2017,10,04,09,15,4.80
2017,10,04,09,16,3.20
2017,10,04,09,17,3.20
2017,10,04,09,18,4.80
2017,10,04,09,19,3.20
2017,10,04,09,20,4.80
2017,10,04,09,21,3.20
2017,10,04,09,22,1.60
2017,10,04,09,23,1.60
2017,10,04,09,25,3.20
2017,10,04,09,26,1.60
2017,10,04,09,28,1.60
2017,10,04,09,29,3.20
2017,10,04,09,30,1.60
2017,10,04,09,31,4.80
2017,10,04,09,32,3.20
2017,10,04,09,33,6.40
2017,10,04,09,35,3.20
2017,10,04,09,36,1.60
2017,10,04,09,37,3.20
2017,10,04,09,39,1.60
2017,10,04,09,40,1.60
2017,10,04,09,41,3.20
2017,10,04,09,42,3.20
2017,10,04,09,43,3.20
2017,10,04,09,44,3.20
2017,10,04,09,45,4.80
2017,10,04,09,46,6.40
2017,10,04,09,47,8.10
2017,10,04,09,48,12.90
2017,10,04,09,49,8.10
2017,10,04,09,50,12.90
2017,10,04,09,51,8.10
2017,10,04,09,52,4.80
2017,10,04,09,53,6.40
2017,10,04,09,54,8.10
2017,10,04,09,55,9.60
2017,10,04,09,56,9.60
2017,10,04,09,57,6.40
2017,10,04,09,58,8.10
2017,10,04,09,59,8.10
2017,10,04,10,00,6.40
2017,10,04,10,01,6.40
2017,10,04,10,02,6.40
2017,10,04,10,03,8.10
2017,10,04,10,04,14.50
2017,10,04,10,05,8.10
2017,10,04,10,06,8.10
2017,10,04,10,07,6.40
2017,10,04,10,08,9.60
2017,10,04,10,09,11.30
2017,10,04,10,10,4.80
2017,10,04,10,11,6.40
2017,10,04,10,12,6.40
2017,10,04,10,13,4.80
2017,10,04,10,14,9.60
2017,10,04,10,15,6.40
2017,10,04,10,16,16.10
2017,10,04,10,17,8.10
2017,10,04,10,18,12.90
2017,10,04,10,19,20.90
2017,10,04,10,20,12.90
2017,10,04,10,21,9.60
2017,10,04,10,22,9.60
2017,10,04,10,23,6.40
2017,10,04,10,24,14.50
2017,10,04,10,25,14.50
2017,10,04,10,26,6.40
2017,10,04,10,27,12.90
2017,10,04,10,28,8.10
2017,10,04,10,29,11.30
2017,10,04,10,30,6.40
2017,10,04,10,31,12.90
2017,10,04,10,32,8.10
2017,10,04,10,33,16.10
2017,10,04,10,34,16.10
2017,10,04,10,35,19.30
2017,10,04,10,36,14.50
2017,10,04,10,37,12.90
2017,10,04,10,38,14.50
2017,10,04,10,39,9.60
2017,10,04,10,40,16.10
2017,10,04,10,41,16.10
2017,10,04,10,42,12.90
2017,10,04,10,43,14.50
2017,10,04,10,44,17.70
2017,10,04,10,45,17.70
2017,10,04,10,46,19.30
2017,10,04,10,47,22.50
2017,10,04,10,48,17.70
2017,10,04,10,49,17.70
2017,10,04,10,50,17.70
2017,10,04,10,51,8.10
2017,10,04,10,52,9.60
2017,10,04,10,53,16.10
2017,10,04,10,54,17.70
2017,10,04,10,55,22.50
2017,10,04,10,56,17.70
2017,10,04,10,57,17.70
2017,10,04,10,58,16.10
2017,10,04,10,59,14.50
2017,10,04,11,00,16.10
2017,10,04,11,01,9.60
2017,10,04,11,02,20.90
2017,10,04,11,03,19.30
2017,10,04,11,04,17.70
2017,10,04,11,05,16.10
2017,10,04,11,06,17.70
2017,10,04,11,07,24.20
2017,10,04,11,08,17.70
2017,10,04,11,09,19.30
2017,10,04,11,10,16.10
2017,10,04,11,11,14.50
2017,10,04,11,12,22.50
2017,10,04,11,13,22.50
2017,10,04,11,14,20.90
2017,10,04,11,15,19.30
2017,10,04,11,16,24.20
2017,10,04,11,17,19.30
2017,10,04,11,18,19.30
2017,10,04,11,19,16.10
2017,10,04,11,20,16.10
2017,10,04,11,21,14.50
2017,10,04,11,22,14.50
2017,10,04,11,23,14.50
2017,10,04,11,24,16.10
2017,10,04,11,25,12.90
2017,10,04,11,26,14.50
2017,10,04,11,27,9.60
2017,10,04,11,28,14.50
2017,10,04,11,29,11.30
2017,10,04,11,30,16.10
2017,10,04,11,31,16.10
2017,10,04,11,32,8.10
2017,10,04,11,33,12.90
2017,10,04,11,34,12.90
2017,10,04,11,35,12.90
2017,10,04,11,36,14.50
2017,10,04,11,37,11.30
2017,10,04,11,38,14.50
2017,10,04,11,39,14.50
2017,10,04,11,40,12.90
2017,10,04,11,41,9.60
2017,10,04,11,42,8.10
2017,10,04,11,43,6.40
2017,10,04,11,44,12.90
2017,10,04,11,45,12.90
2017,10,04,11,46,8.10
2017,10,04,11,47,6.40
2017,10,04,11,48,8.10
2017,10,04,11,49,8.10
2017,10,04,11,50,6.40
2017,10,04,11,51,8.10
2017,10,04,11,52,12.90
2017,10,04,11,53,8.10
2017,10,04,11,54,8.10
2017,10,04,11,55,8.10
2017,10,04,11,56,8.10
2017,10,04,11,57,8.10
2017,10,04,11,58,6.40
2017,10,04,11,59,9.60
2017,10,04,12,00,14.50
2017,10,04,12,01,14.50
2017,10,04,12,02,12.90
2017,10,04,12,03,6.40
2017,10,04,12,04,1.60
2017,10,04,12,05,4.80
2017,10,04,12,06,6.40
2017,10,04,12,07,3.20
2017,10,04,12,08,9.60
2017,10,04,12,09,12.90
2017,10,04,12,10,9.60
2017,10,04,12,11,8.10
2017,10,04,12,12,8.10
2017,10,04,12,13,8.10
2017,10,04,12,14,6.40
2017,10,04,12,15,4.80
2017,10,04,12,16,4.80
2017,10,04,12,17,6.40
2017,10,04,12,18,12.90
2017,10,04,12,19,6.40
2017,10,04,12,20,9.60
2017,10,04,12,21,9.60
2017,10,04,12,22,6.40
2017,10,04,12,23,6.40
2017,10,04,12,24,3.20
2017,10,04,12,25,3.20
2017,10,04,12,26,4.80
2017,10,04,12,27,6.40
2017,10,04,12,28,6.40
2017,10,04,12,29,9.60
2017,10,04,12,30,9.60
2017,10,04,12,31,6.40
2017,10,04,12,32,4.80
2017,10,04,12,33,4.80
2017,10,04,12,35,1.60
2017,10,04,12,36,3.20
2017,10,04,12,37,4.80
2017,10,04,12,38,1.60
2017,10,04,12,39,6.40
2017,10,04,12,40,6.40
2017,10,04,12,41,4.80
2017,10,04,12,42,4.80
2017,10,04,12,43,1.60
2017,10,04,12,44,12.90
2017,10,04,12,45,9.60
2017,10,04,12,46,6.40
2017,10,04,12,47,1.60
2017,10,04,12,48,1.60
2017,10,04,12,49,3.20
2017,10,04,12,50,1.60
2017,10,04,12,51,4.80
2017,10,04,12,52,12.90
2017,10,04,12,53,9.60
2017,10,04,12,54,12.90
2017,10,04,12,55,14.50
2017,10,04,12,56,8.10
2017,10,04,12,57,6.40
2017,10,04,12,58,1.60
2017,10,04,12,59,6.40
2017,10,04,13,00,6.40
2017,10,04,13,01,6.40
2017,10,04,13,02,6.40
2017,10,04,13,03,6.40
2017,10,04,13,04,6.40
2017,10,04,13,05,9.60
2017,10,04,13,06,8.10
2017,10,04,13,07,12.90
2017,10,04,13,08,9.60
2017,10,04,13,09,4.80
2017,10,04,13,10,6.40
2017,10,04,13,11,6.40
2017,10,04,13,12,4.80
2017,10,04,13,13,4.80
2017,10,04,13,14,1.60
2017,10,04,13,15,1.60
2017,10,04,13,16,4.80
2017,10,04,13,17,4.80
2017,10,04,13,18,3.20
2017,10,04,13,19,9.60
2017,10,04,13,20,6.40
2017,10,04,13,21,3.20
2017,10,04,13,22,4.80
2017,10,04,13,23,3.20
2017,10,04,13,24,3.20
2017,10,04,13,25,3.20
2017,10,04,13,26,1.60
2017,10,04,13,27,4.80
2017,10,04,13,28,4.80
2017,10,04,13,29,6.40
2017,10,04,13,30,8.10
2017,10,04,13,31,6.40
2017,10,04,13,32,4.80
2017,10,04,13,33,3.20
2017,10,04,13,34,9.60
2017,10,04,13,35,8.10
2017,10,04,13,36,6.40
2017,10,04,13,37,4.80
2017,10,04,13,38,8.10
2017,10,04,13,39,4.80
2017,10,04,13,43,1.60
2017,10,04,13,44,1.60
2017,10,04,13,45,3.20
2017,10,04,13,46,1.60
2017,10,04,13,48,1.60
2017,10,04,13,49,1.60
2017,10,04,13,50,3.20
2017,10,04,13,51,8.10
2017,10,04,13,52,9.60
2017,10,04,13,53,12.90
2017,10,04,13,54,9.60
2017,10,04,13,55,6.40
2017,10,04,13,56,4.80
2017,10,04,13,57,4.80
2017,10,04,13,58,3.20
2017,10,04,13,59,4.80
2017,10,04,14,00,8.10
2017,10,04,14,01,6.40
2017,10,04,14,02,8.10
2017,10,04,14,03,3.20
2017,10,04,14,04,4.80
2017,10,04,14,05,3.20
2017,10,04,14,06,3.20
2017,10,04,14,07,1.60
2017,10,04,14,08,1.60
2017,10,04,14,09,3.20
2017,10,04,14,10,3.20
2017,10,04,14,11,3.20
2017,10,04,14,12,9.60
2017,10,04,14,13,3.20
2017,10,04,14,14,4.80
2017,10,04,14,15,3.20
2017,10,04,14,16,1.60
2017,10,04,14,17,3.20
2017,10,04,14,18,3.20
2017,10,04,14,19,3.20
2017,10,04,14,20,6.40
2017,10,04,14,21,6.40
2017,10,04,14,22,6.40
2017,10,04,14,23,6.40
2017,10,04,14,24,6.40
2017,10,04,14,25,3.20
2017,10,04,14,26,4.80
2017,10,04,14,27,8.10
2017,10,04,14,28,8.10
2017,10,04,14,29,9.60
2017,10,04,14,30,12.90
2017,10,04,14,31,14.50
2017,10,04,14,32,16.10
2017,10,04,14,33,16.10
2017,10,04,14,34,14.50
2017,10,04,14,35,16.10
2017,10,04,14,36,16.10
2017,10,04,14,37,14.50
2017,10,04,14,38,14.50
2017,10,04,14,39,14.50
2017,10,04,14,40,14.50
2017,10,04,14,41,16.10
2017,10,04,14,42,16.10
2017,10,04,14,43,12.90
2017,10,04,14,44,14.50
2017,10,04,14,45,14.50
2017,10,04,14,46,14.50
2017,10,04,14,47,14.50
2017,10,04,14,48,12.90
2017,10,04,14,49,14.50
2017,10,04,14,50,11.30
2017,10,04,14,51,9.60
2017,10,04,14,52,11.30
2017,10,04,14,53,9.60
2017,10,04,14,54,11.30
2017,10,04,14,55,12.90
2017,10,04,14,56,12.90
2017,10,04,14,57,12.90
2017,10,04,14,58,9.60
2017,10,04,14,59,8.10
2017,10,04,15,00,14.50
2017,10,04,15,01,11.30
2017,10,04,15,02,16.10
2017,10,04,15,03,14.50
2017,10,04,15,04,17.70
2017,10,04,15,05,19.30
2017,10,04,15,06,17.70
2017,10,04,15,07,19.30
2017,10,04,15,08,19.30
2017,10,04,15,09,17.70
2017,10,04,15,10,17.70
2017,10,04,15,11,19.30
2017,10,04,15,12,16.10
2017,10,04,15,13,16.10
2017,10,04,15,14,14.50
2017,10,04,15,15,16.10
2017,10,04,15,16,14.50
2017,10,04,15,17,12.90
2017,10,04,15,18,11.30
2017,10,04,15,19,12.90
2017,10,04,15,20,14.50
2017,10,04,15,21,14.50
2017,10,04,15,22,12.90
2017,10,04,15,23,12.90
2017,10,04,15,24,14.50
2017,10,04,15,25,14.50
2017,10,04,15,26,12.90
2017,10,04,15,27,12.90
2017,10,04,15,28,9.60
2017,10,04,15,29,11.30
2017,10,04,15,30,11.30
2017,10,04,15,31,11.30
2017,10,04,15,32,12.90
2017,10,04,15,33,11.30
2017,10,04,15,34,14.50
2017,10,04,15,35,16.10
2017,10,04,15,36,14.50
2017,10,04,15,37,16.10
2017,10,04,15,38,14.50
2017,10,04,15,39,11.30
2017,10,04,15,40,12.90
2017,10,04,15,41,12.90
2017,10,04,15,42,11.30
2017,10,04,15,43,14.50
2017,10,04,15,44,14.50
2017,10,04,15,45,11.30
2017,10,04,15,46,9.60
2017,10,04,15,47,9.60
2017,10,04,15,48,9.60
2017,10,04,15,49,9.60
2017,10,04,15,50,9.60
2017,10,04,15,51,8.10
2017,10,04,15,52,8.10
2017,10,04,15,53,8.10
2017,10,04,15,54,8.10
2017,10,04,15,55,6.40
2017,10,04,15,56,8.10
2017,10,04,15,57,11.30
2017,10,04,15,58,11.30
2017,10,04,15,59,11.30
2017,10,04,16,00,11.30
2017,10,04,16,01,11.30
2017,10,04,16,02,12.90
2017,10,04,16,03,12.90
2017,10,04,16,04,12.90
2017,10,04,16,05,12.90
2017,10,04,16,06,14.50
2017,10,04,16,07,12.90
2017,10,04,16,08,14.50
2017,10,04,16,09,14.50
2017,10,04,16,10,14.50
2017,10,04,16,11,12.90
2017,10,04,16,12,9.60
2017,10,04,16,13,9.60
2017,10,04,16,14,11.30
2017,10,04,16,15,11.30
2017,10,04,16,16,11.30
2017,10,04,16,17,11.30
2017,10,04,16,18,11.30
2017,10,04,16,19,12.90
2017,10,04,16,20,11.30
2017,10,04,16,21,9.60
2017,10,04,16,22,12.90
2017,10,04,16,23,12.90
2017,10,04,16,24,12.90
2017,10,04,16,25,11.30
2017,10,04,16,26,12.90
2017,10,04,16,27,9.60
2017,10,04,16,28,12.90
2017,10,04,16,29,12.90
2017,10,04,16,30,11.30
2017,10,04,16,31,9.60
2017,10,04,16,32,9.60
2017,10,04,16,33,8.10
2017,10,04,16,34,11.30
2017,10,04,16,35,11.30
2017,10,04,16,36,11.30
2017,10,04,16,37,11.30
2017,10,04,16,38,9.60
2017,10,04,16,39,9.60
2017,10,04,16,40,9.60
2017,10,04,16,41,11.30
2017,10,04,16,42,9.60
2017,10,04,16,43,9.60
2017,10,04,16,44,8.10
2017,10,04,16,45,9.60
2017,10,04,16,46,9.60
2017,10,04,16,47,6.40
2017,10,04,16,48,8.10
2017,10,04,16,49,8.10
2017,10,04,16,50,11.30
2017,10,04,16,51,9.60
2017,10,04,16,52,8.10
2017,10,04,16,53,9.60
2017,10,04,16,54,11.30
2017,10,04,16,55,9.60
2017,10,04,16,56,9.60
2017,10,04,16,57,9.60
2017,10,04,16,58,9.60
2017,10,04,16,59,9.60
2017,10,04,17,00,8.10
2017,10,04,17,01,11.30
2017,10,04,17,02,6.40
2017,10,04,17,03,6.40
2017,10,04,17,04,8.10
2017,10,04,17,05,8.10
2017,10,04,17,06,6.40
2017,10,04,17,07,8.10
2017,10,04,17,08,9.60
2017,10,04,17,09,6.40
2017,10,04,17,10,8.10
2017,10,04,17,11,8.10
2017,10,04,17,12,9.60
2017,10,04,17,13,8.10
2017,10,04,17,14,8.10
2017,10,04,17,15,6.40
2017,10,04,17,16,6.40
2017,10,04,17,17,8.10
2017,10,04,17,18,8.10
2017,10,04,17,19,9.60
2017,10,04,17,20,6.40
2017,10,04,17,21,9.60
2017,10,04,17,22,4.80
2017,10,04,17,23,6.40
2017,10,04,17,24,8.10
2017,10,04,17,25,8.10
2017,10,04,17,26,4.80
2017,10,04,17,27,8.10
2017,10,04,17,28,8.10
2017,10,04,17,29,8.10
2017,10,04,17,30,6.40
2017,10,04,17,31,6.40
2017,10,04,17,32,3.20
2017,10,04,17,33,4.80
2017,10,04,17,34,6.40
2017,10,04,17,35,6.40
2017,10,04,17,36,6.40
2017,10,04,17,37,6.40
2017,10,04,17,38,4.80
2017,10,04,17,39,4.80
2017,10,04,17,40,4.80
2017,10,04,17,41,6.40
2017,10,04,17,42,4.80
2017,10,04,17,43,4.80
2017,10,04,17,44,4.80
2017,10,04,17,45,6.40
2017,10,04,17,46,4.80
2017,10,04,17,47,6.40
2017,10,04,17,48,6.40
2017,10,04,17,49,4.80
2017,10,04,17,50,4.80
2017,10,04,17,51,4.80
2017,10,04,17,52,6.40
2017,10,04,17,53,4.80
2017,10,04,17,54,4.80
2017,10,04,17,55,6.40
2017,10,04,17,56,6.40
2017,10,04,17,57,8.10
2017,10,04,17,58,8.10
2017,10,04,17,59,6.40
2017,10,04,18,00,4.80
2017,10,04,18,01,6.40
2017,10,04,18,02,6.40
2017,10,04,18,03,6.40
2017,10,04,18,04,4.80
2017,10,04,18,05,3.20
2017,10,04,18,06,3.20
2017,10,04,18,07,4.80
2017,10,04,18,08,4.80
2017,10,04,18,09,4.80
2017,10,04,18,10,4.80
2017,10,04,18,11,4.80
2017,10,04,18,12,4.80
2017,10,04,18,13,3.20
2017,10,04,18,14,3.20
2017,10,04,18,15,4.80
2017,10,04,18,16,4.80
2017,10,04,18,17,3.20
2017,10,04,18,18,3.20
2017,10,04,18,19,3.20
2017,10,04,18,20,3.20
2017,10,04,18,21,1.60
2017,10,04,18,22,1.60
2017,10,04,18,24,1.60
2017,10,04,18,25,3.20
2017,10,04,18,26,4.80
2017,10,04,18,27,1.60
2017,10,04,18,28,1.60
2017,10,04,18,29,1.60
2017,10,04,18,30,1.60
2017,10,04,18,31,1.60
2017,10,04,18,34,1.60
2017,10,04,18,35,1.60
2017,10,04,18,36,3.20
2017,10,04,18,37,1.60
2017,10,04,18,38,1.60
2017,10,04,18,39,1.60
2017,10,04,18,40,1.60
2017,10,04,18,44,1.60
2017,10,04,19,37,1.60
2017,10,04,19,38,1.60
2017,10,04,19,39,1.60
2017,10,04,19,40,1.60
2017,10,04,19,41,1.60
2017,10,04,19,50,1.60
2017,10,04,19,51,1.60
2017,10,04,20,01,1.60
2017,10,04,20,02,1.60
2017,10,04,20,06,1.60
2017,10,04,20,07,1.60
2017,10,04,20,08,1.60
2017,10,04,20,09,1.60
2017,10,04,20,10,1.60
2017,10,04,20,12,1.60
2017,10,04,20,13,1.60
2017,10,04,20,14,1.60
2017,10,04,20,15,1.60
2017,10,04,20,16,1.60
2017,10,04,20,17,1.60
2017,10,04,20,18,1.60
2017,10,04,20,19,1.60
2017,10,04,20,20,1.60
2017,10,04,20,51,1.60
2017,10,04,20,52,1.60
2017,10,04,21,10,1.60
2017,10,04,21,11,1.60
2017,10,04,21,12,3.20
2017,10,04,21,13,3.20
2017,10,04,21,14,3.20
2017,10,04,21,15,3.20
2017,10,04,21,16,3.20
2017,10,04,21,17,3.20
2017,10,04,21,18,3.20
2017,10,04,21,19,3.20
2017,10,04,21,20,3.20
2017,10,04,21,21,3.20
2017,10,04,21,22,1.60
2017,10,04,21,26,1.60
2017,10,04,21,27,3.20
2017,10,04,21,28,1.60
2017,10,04,21,29,1.60
2017,10,04,21,32,3.20
2017,10,04,21,33,1.60
2017,10,04,21,34,1.60
2017,10,04,21,35,3.20
2017,10,04,21,36,3.20
2017,10,04,21,37,1.60
2017,10,04,21,52,1.60
2017,10,04,21,55,1.60
2017,10,04,21,56,1.60
2017,10,04,21,57,1.60
2017,10,04,21,58,1.60
2017,10,04,21,59,3.20
2017,10,04,22,00,1.60
2017,10,04,22,01,1.60
2017,10,04,22,02,1.60
2017,10,04,22,03,1.60
2017,10,04,22,04,1.60
2017,10,04,22,05,1.60
2017,10,04,22,06,1.60
2017,10,04,22,07,3.20
2017,10,04,22,08,3.20
2017,10,04,22,09,1.60
2017,10,04,22,14,1.60
2017,10,04,22,16,1.60
2017,10,04,22,17,3.20
2017,10,04,22,18,1.60
2017,10,04,22,19,3.20
2017,10,04,22,20,3.20
2017,10,04,22,21,1.60
2017,10,04,22,22,1.60
2017,10,04,22,23,1.60
2017,10,04,22,24,1.60
2017,10,04,22,25,1.60
2017,10,04,22,26,3.20
2017,10,04,22,27,3.20
2017,10,04,22,28,3.20
2017,10,04,22,29,3.20
2017,10,04,22,30,3.20
2017,10,04,22,31,3.20
2017,10,04,22,32,3.20
2017,10,04,22,33,1.60
2017,10,04,22,34,1.60
2017,10,04,22,35,1.60
2017,10,04,22,36,1.60
2017,10,04,22,37,1.60
2017,10,04,22,38,3.20
2017,10,04,22,39,3.20
2017,10,04,22,40,3.20
2017,10,04,22,41,3.20
2017,10,04,22,42,3.20
2017,10,04,22,43,3.20
2017,10,04,22,44,3.20
2017,10,04,22,45,3.20
2017,10,04,22,46,3.20
2017,10,04,22,47,3.20
2017,10,04,22,48,1.60
2017,10,04,22,50,3.20
2017,10,04,22,51,6.40
2017,10,04,22,52,4.80
2017,10,04,22,56,1.60
2017,10,04,22,57,1.60
2017,10,04,22,58,3.20
2017,10,04,22,59,3.20
2017,10,04,23,00,1.60
2017,10,04,23,01,3.20
2017,10,04,23,02,3.20
2017,10,04,23,03,3.20
2017,10,04,23,04,3.20
2017,10,04,23,05,1.60
2017,10,04,23,08,3.20
2017,10,04,23,09,4.80
2017,10,04,23,10,3.20
2017,10,04,23,11,3.20
2017,10,04,23,12,3.20
2017,10,04,23,16,1.60
2017,10,04,23,17,3.20
2017,10,04,23,18,1.60
2017,10,04,23,23,1.60
2017,10,04,23,24,3.20
2017,10,04,23,25,3.20
2017,10,04,23,26,3.20
2017,10,04,23,27,1.60
2017,10,04,23,28,1.60
2017,10,04,23,29,1.60
2017,10,04,23,30,1.60
2017,10,04,23,36,1.60
2017,10,04,23,38,3.20
2017,10,04,23,39,3.20
2017,10,04,23,40,1.60
2017,10,04,23,41,1.60
2017,10,04,23,42,1.60
2017,10,04,23,44,1.60
2017,10,04,23,45,1.60
2017,10,04,23,46,1.60
2017,10,04,23,47,1.60
2017,10,04,23,48,1.60
2017,10,04,23,58,1.60
2017,10,04,23,59,1.60
